Location: Rotheul
(50.2849°N, 11.2349°E)
Time: 03:37:12
(UTC+02:00)

ISS - Pass Details

Date: 24 September 2018
Orbit: 403 x 408 km, 51.6° (Epoch: 26 September)

Event Time Altitude Azimuth Distance (km) Brightness Sun altitude
Rises 21:52:46 0° 255° (WSW) 2,330 0.6 -25.6°
Reaches altitude 10° 21:54:51 10° 256° (WSW) 1,470 -0.5 -25.9°
Enters shadow 21:55:41 17° 256° (WSW) 1,131 -1.2 -26.0°
